This is the latest recevied weather packets stored in our database for station/object KF0TNT. If no packets are shown the sender has not sent any weather packets the latest 10 day(s).
| Time | Temp. | Humidity | Pressure | Rain* | Wind** | Luminosity | Snow |
|---|---|---|---|---|---|---|---|
| 1777599548 | 1.11° C | 96% | 1021.6 hPa | 0 mm | - | 2 W/m² | - |
| 1777599245 | 1.11° C | 95% | 1021.7 hPa | 0 mm | - | 3 W/m² | - |
| 1777598941 | 1.11° C | 95% | 1021.8 hPa | 0 mm | - | 4 W/m² | - |
| 1777598638 | 1.11° C | 95% | 1021.8 hPa | 0 mm | - | 5 W/m² | - |
| 1777598334 | 1.11° C | 95% | 1021.6 hPa | 0 mm | - | 5 W/m² | - |
| 1777598032 | 1.11° C | 95% | 1021.7 hPa | 0 mm | - | 8 W/m² | - |
| 1777597731 | 1.11° C | 94% | 1021.5 hPa | 0 mm | - | 9 W/m² | - |
| 1777597427 | 1.11° C | 94% | 1021.2 hPa | 0 mm | - | 10 W/m² | - |
| 1777597122 | 1.11° C | 94% | 1021.3 hPa | 0 mm | - | 17 W/m² | - |
| 1777596819 | 1.67° C | 94% | 1021.5 hPa | 0 mm | - | 27 W/m² | - |
| 1777596515 | 1.67° C | 94% | 1021 hPa | 0 mm | - | 33 W/m² | - |
| 1777596213 | 1.67° C | 94% | 1021.3 hPa | 0 mm | - | 37 W/m² | - |
| 1777595909 | 1.67° C | 94% | 1021.3 hPa | 0 mm | - | 54 W/m² | - |
| 1777595604 | 1.67° C | 94% | 1021.3 hPa | 0 mm | - | 69 W/m² | - |
| 1777595300 | 1.67° C | 95% | 1021.5 hPa | 0 mm | - | 87 W/m² | - |
| 1777594996 | 1.67° C | 95% | 1021.3 hPa | 0 mm | - | 94 W/m² | - |
| 1777594693 | 1.67° C | 94% | 1021.5 hPa | 0 mm | - | 72 W/m² | - |
| 1777594390 | 1.67° C | 94% | 1021.2 hPa | 0 mm | - | 50 W/m² | - |
| 1777594085 | 1.67° C | 94% | 1021.5 hPa | 0 mm | - | 55 W/m² | - |
| 1777593781 | 1.67° C | 94% | 1021.5 hPa | 0 mm | - | 53 W/m² | - |
| 1777593478 | 1.67° C | 94% | 1021.5 hPa | 0 mm | - | 36 W/m² | - |
| 1777593176 | 1.67° C | 94% | 1021.2 hPa | 0 mm | - | 49 W/m² | - |
| 1777592876 | 1.67° C | 94% | 1021.2 hPa | 0 mm | - | 61 W/m² | - |
| 1777592573 | 1.67° C | 94% | 1021.2 hPa | 0 mm | - | 79 W/m² | - |
| 1777592268 | 1.67° C | 94% | 1021.1 hPa | 0 mm | - | 98 W/m² | - |
* Rain latest hour (hover to see other rain measurements)
** Current wind speed in m/s (hover to see current wind gust speed)